Location: Dvur Kralove nad Labem
(50.4330°N, 15.8170°E)
Time: 17:33:27
(UTC+01:00)

ISS - Pass Details

Date: 09 November 2018
Orbit: 401 x 408 km, 51.6° (Epoch: 20 November)

Event Time Altitude Azimuth Distance (km) Brightness Sun altitude
Exits shadow 03:42:46 11° 82° (E) 1,417 -0.2 -31.5°
Drops below altitude 10° 03:42:53 10° 82° (E) 1,464 -0.1 -31.5°
Sets 03:44:58 0° 85° (E) 2,326 1.2 -31.2°
